Location: *
(50.5492°N, 7.7469°E)
Time: 16:46:54
(UTC+00:00)

STARLINK-59 - Pass Details

Date: 21 October 2019
Orbit: 548 x 551 km, 53.0° (Epoch: 13 November)

Event Time Altitude Azimuth Distance (km) Brightness Sun altitude
Rises 17:24:45 0° 270° (W) 2,716 9.4 -10.1°
Reaches altitude 10° 17:27:00 10° 274° (W) 1,823 7.8 -10.4°
Maximum altitude 17:31:07 61° 356° (N) 626 3.9 -11.1°
Enters shadow 17:34:15 17° 74° (ENE) 1,451 5.1 -11.6°
